• In Belarus
  • List of Countries
  • For 7 days
  • Water Temperature
  • Satellite Maps
  • Weather Map
  • Weather Widgets
  • user-avatar
    Login

    Hourly Weather Tarin Kowt

    Today, 20 February, Wednesday

    Time Temperature Precipitation Wind Pressure Humidity
    00:00 +7°C° 0 mm 1 mps 613 mmHg 60%
    01:00 +7°C° 0 mm 1 mps 613 mmHg 59%
    02:00 +7°C° 0.1 mm 1 mps 613 mmHg 60%
    03:00 +6°C° 0.1 mm 1 mps 613 mmHg 62%
    04:00 +6°C° 0.1 mm 1 mps 613 mmHg 63%
    05:00 +6°C° 0.4 mm 1 mps 613 mmHg 63%
    06:00 +5°C° 0.4 mm 2 mps 612 mmHg 64%
    07:00 +4°C° 0.4 mm 2 mps 612 mmHg 64%
    08:00 +5°C° 0.1 mm 2 mps 612 mmHg 61%
    09:00 +4°C° 0.1 mm 3 mps 612 mmHg 58%
    10:00 +4°C° 0.1 mm 3 mps 612 mmHg 56%
    11:00 +6°C° 0 mm 2 mps 612 mmHg 53%
    12:00 +7°C° 0 mm 2 mps 612 mmHg 50%
    13:00 +9°C° 0 mm 1 mps 612 mmHg 47%
    14:00 +8°C° 0.1 mm 2 mps 612 mmHg 48%
    15:00 +8°C° 0.1 mm 3 mps 612 mmHg 49%
    16:00 +6°C° 0.1 mm 4 mps 612 mmHg 50%
    17:00 +6°C° 0 mm 4 mps 612 mmHg 53%
    18:00 +5°C° 0 mm 3 mps 613 mmHg 56%
    19:00 +4°C° 0 mm 3 mps 613 mmHg 59%
    20:00 +4°C° 0 mm 3 mps 613 mmHg 62%
    21:00 +4°C° 0 mm 2 mps 614 mmHg 66%
    22:00 +4°C° 0 mm 2 mps 614 mmHg 70%
    23:00 +3°C° 0 mm 2 mps 614 mmHg 72%

    Tomorrow, 21 February, Thursday

    Time Temperature Precipitation Wind Pressure Humidity
    00:00 +3°C° 0 mm 2 mps 614 mmHg 75%
    01:00 +3°C° 0 mm 1 mps 614 mmHg 77%
    02:00 +3°C° 0.2 mm 1 mps 614 mmHg 78%
    03:00 +2°C° 0.2 mm 2 mps 614 mmHg 79%
    04:00 +2°C° 0.2 mm 2 mps 614 mmHg 79%
    05:00 +2°C° 0 mm 1 mps 615 mmHg 80%
    06:00 +2°C° 0 mm 1 mps 616 mmHg 80%
    07:00 +2°C° 0 mm 1 mps 616 mmHg 81%
    08:00 +3°C° 0 mm 1 mps 617 mmHg 75%
    09:00 +3°C° 0 mm 1 mps 617 mmHg 69%
    10:00 +4°C° 0 mm 1 mps 618 mmHg 63%
    11:00 +3°C° 0 mm 2 mps 617 mmHg 59%
    12:00 +4°C° 0 mm 2 mps 617 mmHg 54%
    13:00 +5°C° 0 mm 2 mps 617 mmHg 50%
    14:00 +5°C° 0 mm 2 mps 617 mmHg 48%
    15:00 +5°C° 0 mm 2 mps 617 mmHg 47%
    16:00 +5°C° 0 mm 2 mps 617 mmHg 46%
    17:00 +5°C° 0 mm 2 mps 617 mmHg 49%
    18:00 +5°C° 0 mm 1 mps 617 mmHg 53%
    19:00 +5°C° 0 mm 1 mps 618 mmHg 56%
    20:00 +4°C° 0 mm 1 mps 618 mmHg 59%
    21:00 +4°C° 0 mm 1 mps 618 mmHg 61%
    22:00 +3°C° 0 mm 1 mps 619 mmHg 64%
    23:00 +3°C° 0 mm 1 mps 618 mmHg 66%

    Day after tomorrow, 22 February, Friday

    Time Temperature Precipitation Wind Pressure Humidity
    00:00 +2°C° 0 mm 0 mps 618 mmHg 67%
    01:00 +1°C° 0 mm 0 mps 618 mmHg 69%
    02:00 +1°C° 0 mm 0 mps 618 mmHg 69%
    03:00 +1°C° 0 mm 0 mps 618 mmHg 70%
    04:00 0°C° 0 mm 0 mps 617 mmHg 70%
    05:00 +2°C° 0 mm 1 mps 618 mmHg 68%
    06:00 +2°C° 0 mm 1 mps 618 mmHg 65%
    07:00 +2°C° 0 mm 1 mps 619 mmHg 63%
    08:00 +3°C° 0 mm 1 mps 619 mmHg 57%
    09:00 +4°C° 0 mm 1 mps 619 mmHg 51%
    10:00 +5°C° 0 mm 1 mps 619 mmHg 45%
    11:00 +6°C° 0 mm 1 mps 618 mmHg 41%
    12:00 +6°C° 0 mm 0 mps 618 mmHg 38%
    13:00 +6°C° 0 mm 0 mps 617 mmHg 35%
    14:00 +7°C° 0 mm 0 mps 617 mmHg 33%
    15:00 +8°C° 0 mm 1 mps 617 mmHg 32%
    16:00 +8°C° 0 mm 1 mps 617 mmHg 31%
    17:00 +8°C° 0 mm 1 mps 617 mmHg 36%
    18:00 +7°C° 0 mm 1 mps 617 mmHg 40%
    19:00 +7°C° 0 mm 1 mps 618 mmHg 45%
    20:00 +6°C° 0 mm 1 mps 618 mmHg 47%
    21:00 +4°C° 0 mm 0 mps 618 mmHg 49%
    22:00 +4°C° 0 mm 0 mps 618 mmHg 51%
    23:00 +4°C° 0 mm 0 mps 618 mmHg 50%

    23 February, Saturday

    Time Temperature Precipitation Wind Pressure Humidity
    00:00 +4°C° 0 mm 1 mps 618 mmHg 50%
    01:00 +4°C° 0 mm 1 mps 618 mmHg 49%
    02:00 +4°C° 0 mm 1 mps 617 mmHg 47%
    03:00 +3°C° 0 mm 1 mps 617 mmHg 46%
    04:00 +3°C° 0 mm 1 mps 617 mmHg 45%
    05:00 +2°C° 0 mm 2 mps 617 mmHg 43%
    06:00 +2°C° 0 mm 2 mps 617 mmHg 42%
    07:00 +2°C° 0 mm 2 mps 618 mmHg 40%
    08:00 +3°C° 0 mm 2 mps 618 mmHg 36%
    09:00 +5°C° 0 mm 2 mps 618 mmHg 31%
    10:00 +6°C° 0 mm 2 mps 618 mmHg 26%
    11:00 +8°C° 0 mm 1 mps 617 mmHg 26%
    12:00 +8°C° 0 mm 1 mps 617 mmHg 26%
    13:00 +9°C° 0 mm 1 mps 617 mmHg 25%
    14:00 +9°C° 0 mm 1 mps 616 mmHg 26%
    15:00 +8°C° 0 mm 2 mps 616 mmHg 26%
    16:00 +9°C° 0 mm 2 mps 616 mmHg 27%
    17:00 +8°C° 0 mm 2 mps 616 mmHg 31%
    18:00 +8°C° 0 mm 1 mps 616 mmHg 36%
    19:00 +7°C° 0 mm 1 mps 616 mmHg 40%
    20:00 +7°C° 0 mm 1 mps 616 mmHg 41%
    21:00 +6°C° 0 mm 1 mps 616 mmHg 42%
    22:00 +6°C° 0 mm 1 mps 617 mmHg 43%
    23:00 +6°C° 0 mm 1 mps 616 mmHg 43%

    24 February, Sunday

    Time Temperature Precipitation Wind Pressure Humidity
    00:00 +5°C° 0 mm 1 mps 616 mmHg 43%
    01:00 +4°C° 0 mm 2 mps 616 mmHg 42%
    02:00 +3°C° 0 mm 2 mps 615 mmHg 43%
    03:00 +3°C° 0 mm 2 mps 615 mmHg 43%
    04:00 +2°C° 0 mm 2 mps 615 mmHg 44%
    05:00 +2°C° 0 mm 2 mps 615 mmHg 43%
    06:00 +2°C° 0 mm 2 mps 615 mmHg 43%
    07:00 +2°C° 0 mm 2 mps 615 mmHg 43%
    08:00 +3°C° 0 mm 2 mps 616 mmHg 38%
    09:00 +4°C° 0 mm 2 mps 616 mmHg 34%
    10:00 +5°C° 0 mm 2 mps 616 mmHg 29%
    11:00 +6°C° 0 mm 2 mps 616 mmHg 28%
    12:00 +7°C° 0 mm 2 mps 615 mmHg 27%
    13:00 +7°C° 0 mm 2 mps 615 mmHg 26%
    14:00 +7°C° 0 mm 2 mps 615 mmHg 26%
    15:00 +8°C° 0 mm 2 mps 614 mmHg 26%
    16:00 +8°C° 0 mm 2 mps 614 mmHg 26%
    17:00 +7°C° 0 mm 2 mps 614 mmHg 30%
    18:00 +7°C° 0 mm 1 mps 615 mmHg 34%
    19:00 +7°C° 0 mm 1 mps 615 mmHg 38%
    20:00 +6°C° 0 mm 1 mps 615 mmHg 38%
    21:00 +5°C° 0 mm 2 mps 615 mmHg 38%
    22:00 +4°C° 0 mm 2 mps 615 mmHg 38%
    23:00 +4°C° 0 mm 2 mps 615 mmHg 39%

    25 February, Monday

    Time Temperature Precipitation Wind Pressure Humidity
    00:00 +3°C° 0 mm 2 mps 614 mmHg 40%
    01:00 +2°C° 0 mm 2 mps 614 mmHg 41%
    02:00 +2°C° 0 mm 2 mps 614 mmHg 42%
    03:00 +1°C° 0 mm 2 mps 613 mmHg 44%
    04:00 +1°C° 0 mm 2 mps 613 mmHg 46%
    05:00 +1°C° 0 mm 2 mps 613 mmHg 47%
    06:00 0°C° 0 mm 3 mps 614 mmHg 48%
    07:00 -1°C° 0 mm 3 mps 614 mmHg 49%
    08:00 +1°C° 0 mm 3 mps 614 mmHg 44%
    09:00 +2°C° 0 mm 3 mps 614 mmHg 38%
    10:00 +3°C° 0 mm 3 mps 614 mmHg 33%
    11:00 +4°C° 0 mm 3 mps 614 mmHg 31%
    12:00 +4°C° 0 mm 3 mps 614 mmHg 28%
    13:00 +5°C° 0 mm 3 mps 613 mmHg 26%
    14:00 +7°C° 0 mm 3 mps 613 mmHg 26%
    15:00 +7°C° 0 mm 3 mps 613 mmHg 25%
    16:00 +7°C° 0 mm 3 mps 613 mmHg 25%
    17:00 +5°C° 0 mm 3 mps 613 mmHg 28%
    18:00 +5°C° 0 mm 3 mps 614 mmHg 31%
    19:00 +5°C° 0 mm 2 mps 614 mmHg 35%
    20:00 +4°C° 0 mm 2 mps 614 mmHg 37%
    21:00 +4°C° 0 mm 2 mps 614 mmHg 40%
    22:00 +3°C° 0 mm 2 mps 614 mmHg 42%
    23:00 +3°C° 0 mm 2 mps 614 mmHg 44%
    Show more